Regional Weather Roundup
Issued by NWS

Home | Current Version | Previous Version | Text Only | Print | Product List | Glossary On
Versions: 1 2 3 4 5 6 7 8 9 10 11 12 13 14 15 16 17 18 19 20 21 22 23 24 25 26 27 28 29 30 31 32 33 34 35 36 37 38 39 40 41 42 43 44 45 46 47 48 49 50
000
ASUS43 KLSX 241307
RWRMO

WEATHER SUMMARY FOR MISSOURI
NATIONAL WEATHER SERVICE SPRINGFIELD MO
800 AM CDT SUN MAY 24 2015

NOTE: "FAIR" INDICATES FEW OR NO CLOUDS BELOW 12,000 FEET WITH NO
       SIGNIFICANT WEATHER AND/OR OBSTRUCTIONS TO VISIBILITY.
       CURRENT SKY AND/OR WEATHER CONDITIONS ARE NOT AVAILABLE FOR
       CHILLICOTHE AND FARMINGTON.

MOZ001>031-035>038-043-044-053-054-241400-
...NORTHERN AND WESTERN MISSOURI...

CITY           SKY/WX    TMP DP  RH WIND       PRES   REMARKS
KANSAS CTY INT LGT RAIN  64  64 100 S8        29.90R FOG
KANSAS C DTWN  LGT RAIN  66  63  90 SW6       29.89R FOG
LEE`S SUMMIT   CLOUDY    65  63  93 S12       29.91S
ST JOSEPH      CLOUDY    62  61  96 S5        29.89S
CHILLICOTHE      N/A     63  32  31 SE7       29.93S
KIRKSVILLE     LGT RAIN  60  59  96 SE12      29.98F FOG

$$
MOZ066>068-077>081-088>096-101>105-241400-
...SOUTHWEST MISSOURI...

CITY           SKY/WX    TMP DP  RH WIND       PRES   REMARKS
SPRINGFIELD    CLOUDY    66  63  90 SE13      29.95F
JOPLIN         CLOUDY    66  64  93 CALM      29.91S

$$
MOZ032>034-039>042-045>050-055>058-069>072-241400-
...CENTRAL MISSOURI...

CITY           SKY/WX    TMP DP  RH WIND       PRES   REMARKS
COLUMBIA       CLOUDY    66  57  72 SE10      29.99F
JEFFERSON CITY CLOUDY    68  57  68 SE10      29.98F
ROLLA          CLOUDY    69  61  75 S15       30.01S
SEDALIA        RAIN      64  60  87 SE16      29.96R FOG
WHITEMAN AFB   DRIZZLE   64  63  95 S15G21    29.90F
WARRENSBURG    DRIZZLE   63  61  94 S8        29.91S
OSAGE BEACH    CLOUDY    70  59  68 S7        29.98S

$$
MOZ051-052-059>065-241400-
...EAST CENTRAL MISSOURI...

CITY           SKY/WX    TMP DP  RH WIND       PRES   REMARKS
ST LOUIS INTL  PTSUNNY   70  56  61 SE12      30.08F
SPIRIT OF STL  PTSUNNY   68  58  70 VRB6      30.06S
ST CHARLES     CLOUDY    68  56  65 SE12      30.07F

$$
MOZ072>076-082>087-097>100-106>115-241400-
...SOUTH CENTRAL AND SOUTHEAST MISSOURI...

CITY           SKY/WX    TMP DP  RH WIND       PRES   REMARKS
CAPE GIRARDEAU MOSUNNY   69  61  75 SE13      30.12S
FARMINGTON     PTSUNNY   68  59  73 S12       30.13S
POPLAR BLUFF   CLOUDY    70  61  73 S9G20     30.09S
WEST PLAINS    CLOUDY    68  61  78 S13G20    30.06S

$$


USA.gov is the U.S. government's official web portal to all federal, state and local government web resources and services.